[[{"header":{"parameterUnit":"m.s-1","parameterCategory":1,"la1":30.2991,"la2":30.254,"lo1":-89.0895,"lo2":-89.0444,"dy":0.0017,"dx":0.0017,"nx":28,"ny":28,"refTime":"2024-05-28T03:00:00:Z","depth":0,"parameterNumber":2,"parameterNumberName":"U-component_of_WINDS"},"data":[0,0,0,0,0,0,0,0,0,0,0,0,0,0,0,0,0,0,0,0,0,0,0,0,0,0,0,0,0,0,0,0,0,0,0,0,0,0,0,0,0,0,0,0,0,0,0,0,0,0,0,0,0,0,0,0,0,0,1.3719,1.372,0,1.3801,1.3802,1.3803,1.3833,1.3833,1.3832,1.3832,1.3915,1.3918,1.392,0,0,0,0,0,0,0,0,0,0,0,0,0,1.3586,1.3589,1.3719,1.372,1.3721,1.3801,1.3802,1.3803,1.3833,1.3833,1.3832,1.3832,1.3915,1.3917,1.392,0,0,0,0,0,0,0,0,0,0,0,0,0,1.3654,1.3589,1.3719,1.3746,1.3749,1.3801,1.3802,1.3804,1.3833,1.3833,1.3832,1.3832,1.3914,1.3917,1.3921,1.3952,0,0,1.3932,1.3934,0,0,0,0,0,0,0,0,1.365,1.3659,1.3741,1.3744,1.3748,1.3806,1.3786,1.3854,1.3833,1.3801,1.3832,1.3832,1.3879,1.3886,1.3902,1.3956,1.396,1.3933,1.3935,1.3936,1.3937,0,0,0,0,0,0,0,1.3645,1.3655,1.3752,1.3742,1.3746,1.3753,1.3762,1.3799,1.3842,1.3804,1.3806,1.3815,1.3881,1.3899,1.3904,1.3961,1.3932,1.3936,1.3938,1.394,1.4044,1.4044,0,0,0,0,0,0,1.3636,1.3651,1.3749,1.3754,1.3697,1.3756,1.3766,1.3788,1.3841,1.3849,1.3816,1.3817,1.3892,1.39,1.3907,1.3947,1.3936,1.394,1.3942,1.4043,1.4044,1.4044,0,0,0,0,0,0,1.3633,1.3645,1.3746,1.3703,1.3717,1.3758,1.3783,1.379,1.3807,1.385,1.3858,1.3826,1.3892,1.3902,1.3941,1.395,1.3942,1.3945,1.4043,1.4043,1.4044,1.4027,0,0,0,0,0,0,1.3629,1.3644,1.3656,1.3703,1.3719,1.3778,1.3784,1.3792,1.3814,1.3815,1.3862,1.3869,1.3893,1.3935,1.3944,1.3955,1.3948,1.4042,1.4043,1.4044,1.4027,1.4027,1.4027,0,0,0,0,0,1.3625,1.3648,1.3657,1.3669,1.3736,1.3779,1.3787,1.3815,1.3814,1.3827,1.3855,1.3868,1.3948,1.3939,1.395,1.3962,1.4041,1.4043,1.4044,1.4027,1.4027,1.4027,0,0,0,0,0,0,1.3601,1.3655,1.3665,1.3705,1.3737,1.3784,1.3801,1.3814,1.3847,1.3847,1.3879,1.3889,1.3925,1.3947,1.3936,1.3994,1.3995,1.3999,1.3979,1.3979,1.3979,1.3973,1.3951,0,0,0,0,0,1.36,1.3631,1.3676,1.3707,1.3723,1.3759,1.3778,1.3796,1.3831,1.3845,1.3875,1.3908,1.394,1.3961,1.3993,1.403,1.404,1.4044,1.4044,1.4044,1.4046,1.4067,1.4068,1.4048,1.4048,1.4048,0,0,1.36,1.3633,1.365,1.3703,1.373,1.3761,1.377,1.3802,1.3825,1.3849,1.3888,1.3911,1.3949,1.3987,1.4005,1.4006,1.4054,1.4045,1.4045,1.4048,1.4068,1.407,1.4072,1.4049,1.4049,1.4049,0,0,1.3613,1.3642,1.367,1.3697,1.3738,1.3762,1.3768,1.3813,1.3829,1.3868,1.3887,1.3914,1.397,1.3996,1.4017,1.404,1.4052,1.4049,1.405,1.407,1.4071,1.4073,1.408,1.4083,1.4052,1.4052,1.4052,0,1.3607,1.3654,1.3683,1.3714,1.3736,1.376,1.3788,1.3813,1.3862,1.3876,1.3878,1.3947,1.3975,1.4018,1.4024,1.404,1.4048,1.4044,1.4069,1.407,1.4072,1.408,1.4083,1.4051,1.4051,1.4051,1.4051,0,1.3644,1.3676,1.3694,1.3741,1.3765,1.3795,1.3827,1.3848,1.3864,1.3887,1.3926,1.396,1.3999,1.4011,1.4027,1.4056,1.4056,1.4062,1.4064,1.4073,1.4081,1.4084,1.405,1.405,1.405,1.4051,0,0,1.3646,1.3708,1.3714,1.3735,1.3781,1.3806,1.3836,1.3875,1.3892,1.3925,1.395,1.3996,1.4002,1.4026,1.4045,1.4062,1.4076,1.4066,1.4067,1.4066,1.4111,1.4105,1.4108,1.4085,1.4086,1.4086,1.4107,0,1.3665,1.3721,1.3747,1.379,1.382,1.3843,1.3869,1.3899,1.3922,1.395,1.3975,1.4006,1.4012,1.4026,1.4044,1.4071,1.4086,1.407,1.4109,1.411,1.4098,1.4112,1.4107,1.4125,1.411,1.4111,1.4111,0,1.3695,1.3728,1.3775,1.3817,1.383,1.3853,1.389,1.3917,1.3952,1.3967,1.3993,1.4011,1.4042,1.4042,1.4085,1.4074,1.4091,1.4107,1.4108,1.4113,1.4111,1.4117,1.4131,1.4134,1.4116,1.4116,1.4116,0,1.3691,1.3747,1.3782,1.3799,1.3849,1.3865,1.3886,1.3921,1.3942,1.3974,1.3988,1.4024,1.4043,1.4069,1.4096,1.4093,1.4137,1.4139,1.415,1.4149,1.4158,1.4157,1.4175,1.417,1.417,1.417,1.417,0,1.371,1.3737,1.378,1.3802,1.3833,1.3862,1.3892,1.3915,1.3946,1.3971,1.3993,1.4017,1.4051,1.4078,1.41,1.4132,1.4141,1.4153,1.4159,1.4151,1.415,1.4163,1.4162,1.417,1.417,1.417,1.417,0,1.371,1.374,1.378,1.3824,1.3836,1.3857,1.3894,1.3915,1.3939,1.3971,1.398,1.4016,1.405,1.4079,1.4124,1.4138,1.4171,1.4178,1.4159,1.4162,1.4172,1.417,1.4199,1.4204,1.4195,1.4195,1.4195,0,1.372,1.3742,1.3788,1.3807,1.3829,1.3859,1.388,1.391,1.3932,1.3973,1.3989,1.4024,1.4054,1.4106,1.4136,1.417,1.4178,1.4185,1.4183,1.4174,1.4177,1.4175,1.4177,1.4185,1.4185,1.4185,1.4185,0,1.3734,1.3748,1.3779,1.3814,1.384,1.3869,1.3899,1.3913,1.3948,1.3971,1.4006,1.4029,1.4074,1.4109,1.4146,1.4167,1.4182,1.4185,1.419,1.4183,1.4171,1.4177,1.4159,1.4185,1.4185,1.4185,1.4185,1.4185,1.3739,1.3759,1.3795,1.3829,1.3854,1.3882,1.3904,1.3929,1.3959,1.3998,1.4014,1.4049,1.4083,1.4134,1.4155,1.4183,1.4185,1.4192,1.4193,1.4194,1.4193,1.4166,1.419,1.419,1.419,1.419,1.419,0,1.3754,1.3778,1.3809,1.385,1.3876,1.3888,1.3921,1.3942,1.3973,1.4003,1.4032,1.4071,1.4104,1.4137,1.4172,1.4187,1.4195,1.4196,1.4195,1.4199,1.4189,1.4182,1.4189,1.4189,1.4189,1.4189,1.4189,1.4189,1.3765,1.3799,1.3817,1.3864,1.3888,1.3923,1.3941,1.3966,1.399,1.4033,1.4061,1.4082,1.4113,1.415,1.4181,1.419,1.4201,1.42,1.421,1.42,1.42,1.42,1.4193,1.4202,1.4202,1.4218,1.4218,1.4219]},{"header":{"parameterUnit":"m.s-1","parameterCategory":1,"la1":30.2991,"la2":30.254,"lo1":-89.0895,"lo2":-89.0444,"dy":0.0017,"dx":0.0017,"nx":28,"ny":28,"refTime":"2024-05-28T03:00:00:Z","depth":0,"parameterNumber":3,"parameterNumberName":"V-component_of_WINDS"},"data":[0,0,0,0,0,0,0,0,0,0,0,0,0,0,0,0,0,0,0,0,0,0,0,0,0,0,0,0,0,0,0,0,0,0,0,0,0,0,0,0,0,0,0,0,0,0,0,0,0,0,0,0,0,0,0,0,0,0,2.4373,2.4372,0,2.4316,2.4315,2.4315,2.4287,2.4287,2.4287,2.4287,2.4224,2.4222,2.422,0,0,0,0,0,0,0,0,0,0,0,0,0,2.4454,2.4453,2.4373,2.4372,2.4371,2.4316,2.4315,2.4314,2.4287,2.4287,2.4287,2.4288,2.4224,2.4222,2.422,0,0,0,0,0,0,0,0,0,0,0,0,0,2.441,2.4452,2.4373,2.4351,2.4349,2.4316,2.4315,2.4314,2.4287,2.4287,2.4287,2.4288,2.4225,2.4223,2.422,2.4203,0,0,2.4212,2.4211,0,0,0,0,0,0,0,0,2.4413,2.4407,2.4355,2.4353,2.435,2.4309,2.432,2.4277,2.4287,2.4311,2.4287,2.4288,2.4252,2.4247,2.4236,2.42,2.4197,2.4212,2.421,2.4209,2.4208,0,0,0,0,0,0,0,2.4416,2.4409,2.435,2.4355,2.4351,2.4343,2.4337,2.4312,2.4281,2.4309,2.4306,2.43,2.425,2.4239,2.4234,2.4196,2.4212,2.421,2.4208,2.4207,2.4144,2.4144,0,0,0,0,0,0,2.4423,2.4412,2.4352,2.4348,2.4382,2.4342,2.4335,2.4322,2.4282,2.4276,2.43,2.4299,2.4243,2.4237,2.4232,2.421,2.4209,2.4207,2.4205,2.4144,2.4144,2.4144,0,0,0,0,0,0,2.4425,2.4418,2.4354,2.438,2.4371,2.434,2.4326,2.4321,2.4309,2.4275,2.4269,2.4294,2.4243,2.4236,2.4211,2.4207,2.4206,2.4203,2.4144,2.4144,2.4144,2.4165,0,0,0,0,0,0,2.4427,2.4419,2.4413,2.438,2.437,2.4335,2.4326,2.432,2.4305,2.4303,2.4268,2.4262,2.4242,2.4215,2.4208,2.4204,2.4201,2.4144,2.4144,2.4144,2.4165,2.4166,2.4167,0,0,0,0,0,2.443,2.4419,2.4412,2.4405,2.4362,2.4335,2.4329,2.4308,2.4305,2.4298,2.4277,2.4263,2.4209,2.4213,2.4205,2.4199,2.4144,2.4144,2.4144,2.4164,2.4166,2.4167,0,0,0,0,0,0,2.445,2.4415,2.4406,2.4385,2.4364,2.4331,2.4321,2.431,2.4287,2.4286,2.4259,2.4251,2.4229,2.4212,2.4216,2.4181,2.4175,2.4174,2.4193,2.4194,2.4195,2.42,2.4199,0,0,0,0,0,2.4453,2.4435,2.4405,2.4388,2.4379,2.4352,2.4339,2.4325,2.4301,2.4291,2.4268,2.4244,2.4221,2.4207,2.4184,2.4162,2.4154,2.4155,2.4156,2.4157,2.4155,2.4143,2.4143,2.4143,2.4143,2.4143,0,0,2.4456,2.4435,2.4425,2.4392,2.4374,2.4356,2.4344,2.4325,2.4311,2.4288,2.4264,2.4246,2.4217,2.4194,2.4183,2.4179,2.4154,2.4156,2.4158,2.4155,2.4143,2.4143,2.4143,2.4143,2.4143,2.4143,0,0,2.4454,2.4436,2.4421,2.4404,2.4377,2.436,2.4357,2.4326,2.4314,2.429,2.4273,2.4255,2.4216,2.4197,2.4182,2.4175,2.4161,2.4168,2.4173,2.4162,2.4162,2.4161,2.4159,2.4159,2.4167,2.4167,2.4167,0,2.4461,2.4435,2.4415,2.4397,2.4383,2.4364,2.4349,2.4332,2.4298,2.4289,2.4285,2.4238,2.4217,2.419,2.4189,2.4177,2.4172,2.4171,2.4164,2.4163,2.4163,2.416,2.4159,2.4168,2.4168,2.4167,2.4167,0,2.4445,2.4427,2.4418,2.4389,2.4374,2.4358,2.4334,2.4321,2.4309,2.4292,2.4268,2.4243,2.4215,2.4207,2.4194,2.4178,2.4177,2.4169,2.4163,2.4164,2.4161,2.416,2.4169,2.4169,2.4168,2.4168,0,0,2.4453,2.4415,2.4412,2.4399,2.4369,2.4354,2.4336,2.4312,2.4301,2.4279,2.4264,2.4233,2.4226,2.4209,2.4193,2.4183,2.418,2.4176,2.4175,2.4178,2.4162,2.4168,2.4167,2.4171,2.4171,2.4171,2.4164,0,2.4446,2.4416,2.4399,2.4375,2.4359,2.4341,2.4326,2.4305,2.4289,2.4271,2.4253,2.4232,2.4224,2.4214,2.4203,2.4183,2.4176,2.4183,2.4156,2.4155,2.4164,2.4166,2.4172,2.4167,2.4163,2.4163,2.4163,0,2.4434,2.4416,2.4391,2.4365,2.4357,2.4344,2.4321,2.4304,2.4281,2.427,2.4253,2.4237,2.4218,2.4214,2.4186,2.4191,2.4179,2.4167,2.4167,2.4163,2.4159,2.4162,2.4165,2.4164,2.4161,2.4161,2.4161,0,2.4443,2.4411,2.4393,2.4382,2.4351,2.4342,2.4328,2.4305,2.4292,2.4271,2.4262,2.4238,2.4225,2.4207,2.4185,2.4184,2.416,2.4154,2.415,2.415,2.4145,2.4145,2.4146,2.4137,2.4137,2.4137,2.4138,0,2.4437,2.4423,2.4396,2.4385,2.4369,2.4348,2.4332,2.4317,2.4297,2.4281,2.4264,2.425,2.4223,2.4205,2.4188,2.4168,2.4162,2.4152,2.4147,2.4153,2.4155,2.4145,2.4145,2.4137,2.4137,2.4137,2.4137,0,2.4443,2.4425,2.4404,2.4377,2.437,2.4359,2.4335,2.4323,2.4307,2.4288,2.4282,2.4256,2.4235,2.4212,2.4182,2.4171,2.4152,2.4145,2.416,2.4158,2.4155,2.4156,2.4149,2.4147,2.414,2.414,2.414,0,2.4441,2.443,2.4403,2.4393,2.438,2.4363,2.435,2.433,2.4317,2.4291,2.4282,2.426,2.424,2.4207,2.4184,2.4161,2.4154,2.4154,2.4151,2.4158,2.4155,2.4156,2.4155,2.4154,2.4155,2.4155,2.4155,0,2.4439,2.4431,2.4414,2.4395,2.4381,2.4364,2.4346,2.4338,2.4314,2.43,2.4279,2.4265,2.4236,2.4213,2.4188,2.4173,2.416,2.4157,2.4154,2.416,2.4169,2.4165,2.4163,2.4156,2.4156,2.4156,2.4156,2.4156,2.4441,2.4431,2.4411,2.4393,2.4378,2.4363,2.4351,2.4334,2.4317,2.4293,2.4282,2.4261,2.4238,2.4204,2.4189,2.4171,2.4167,2.4164,2.4163,2.4163,2.4165,2.4173,2.4166,2.4166,2.4166,2.4166,2.4166,0,2.4438,2.4425,2.4409,2.4386,2.4372,2.4364,2.4344,2.4332,2.4315,2.4296,2.4279,2.4255,2.4234,2.4211,2.4188,2.4179,2.4173,2.4174,2.4174,2.4171,2.4169,2.4173,2.418,2.418,2.418,2.418,2.418,2.418,2.4435,2.4419,2.4409,2.4384,2.4371,2.4352,2.4341,2.4327,2.4312,2.4287,2.427,2.4256,2.4235,2.4212,2.4192,2.4186,2.4178,2.4181,2.4173,2.4172,2.4171,2.417,2.4174,2.418,2.418,2.4176,2.4176,2.4176]}]]